User: anonymous   Login
Location: Famechon
(49.7599°N, 2.0615°E)
Time: 10:30:14
(UTC+00:00)
Language:

BREEZE-M DEB (TANK) - Orbit

View from above orbital plane
View from above orbital plane
View from above satellite
View from above satellite

Ground track
Ground track

The orbit data is extracted from the following two-line orbital elements,

1 31863U 07032B   23155.82229412  .00000620  00000-0  48354-3 0  9994
2 31863  45.9134 209.9879 4957557 172.8255 198.4957  5.53023022319867
Epoch (UTC): 04 June 2023 19:44:06
Eccentricity: 0.4957557
inclination: 45.9134°
perigee height: 433 km
apogee height: 13825 km
right ascension of ascending node: 209.9879°
argument of perigee: 172.8255°
revolutions per day: 5.53023022
mean anomaly at epoch: 198.4957°
orbit number at epoch: 31986

The dashed part of the orbit path shows where the satellite is in the earth's shadow,  

DLR